Change the Weather History Date:

Thursday, May 29, 2014

  Actual Average Record
Temperature  
Mean Temperature 56 °F -  
Max Temperature 70 °F 62 °F 82 °F (2013)
Min Temperature 44 °F 38 °F -31 °F (1971)
Degree Days  
Heating Degree Days 8    
Growing Degree Days 6 (Base 50)    
Moisture  
Dew Point 41 °F    
Average Humidity 59    
Maximum Humidity 93    
Minimum Humidity 32    
Precipitation  
Precipitation 0.00 in - - ()
Sea Level Pressure  
Sea Level Pressure 29.81 in    
Wind  
Wind Speed 5 mph (ESE)    
Max Wind Speed 13 mph    
Max Gust Speed 17 mph    
Visibility 10 miles    
Events      
Averages and records for this station are not official NWS values.
T = Trace of Precipitation, MM = Missing Value Source: NWS Daily Summary

Daily Weather History Graph

Daily Weather History Graph

Search for Another Location

Airport or City:

Trip Planner

Search our weather history database for the weather conditions in past years. The results will help you decide how hot, cold, wet, or windy it might be!

Date:

Astronomy

May. 29, 2014 Rise Set
Actual Time 3:51 AM AKDT 12:23 AM AKDT
Civil Twilight Sun does not rise Sun does not rise
Nautical Twilight Sun does not rise Sun does not rise
Astronomical Twilight Sun does not rise Sun does not rise
Moon 5:37 AM AKDT (5/29) No Moon Set
Length of Visible Light 24h 00m
Length of Day
20h 31m
New Moon, 1% of the Moon is Illuminated
May 29
New Moon
Jun 5
First Quarter
Jun 12
Full
Jun 19
Last Quarter
Jun 27
New

Hourly Weather History & Observations

Time (AKDT) Temp. Windchill Dew Point Humidity Pressure Visibility Wind Dir Wind Speed Gust Speed Precip Events Conditions
12:52 AM 48.9 °F - 46.9 °F 93% 29.93 in 10.0 mi NNW 3.5 mph - N/A   Mostly Cloudy
1:52 AM 46.9 °F - 45.0 °F 93% 29.93 in 10.0 mi Calm Calm - N/A   Overcast
2:52 AM 46.9 °F - 44.1 °F 90% 29.93 in 10.0 mi Calm Calm - N/A   Overcast
3:52 AM 44.1 °F 42.5 °F 42.1 °F 93% 29.93 in 10.0 mi NNE 3.5 mph - N/A   Overcast
4:52 AM 45.0 °F 43.5 °F 42.1 °F 90% 29.93 in 10.0 mi North 3.5 mph - N/A   Mostly Cloudy
5:52 AM 48.0 °F - 43.0 °F 83% 29.92 in 10.0 mi Calm Calm - N/A   Overcast
6:52 AM 50.0 °F - 44.1 °F 80% 29.92 in 10.0 mi Calm Calm - N/A   Mostly Cloudy
7:52 AM 51.1 °F - 44.1 °F 77% 29.91 in 10.0 mi ESE 8.1 mph - N/A   Mostly Cloudy
8:52 AM 53.1 °F - 44.1 °F 71% 29.90 in 10.0 mi ESE 5.8 mph - N/A   Overcast
9:52 AM 57.0 °F - 45.0 °F 64% 29.88 in 10.0 mi SE 4.6 mph - N/A   Mostly Cloudy
10:52 AM 57.0 °F - 45.0 °F 64% 29.88 in 10.0 mi SE 4.6 mph - N/A   Mostly Cloudy
11:52 AM 61.0 °F - 44.1 °F 54% 29.86 in 10.0 mi SE 3.5 mph - N/A   Mostly Cloudy
12:52 PM 64.9 °F - 44.1 °F 47% 29.82 in 10.0 mi East 8.1 mph - N/A   Mostly Cloudy
1:52 PM 68.0 °F - 41.0 °F 37% 29.81 in 10.0 mi SE 8.1 mph 17.3 mph N/A   Mostly Cloudy
2:52 PM 69.1 °F - 41.0 °F 36% 29.78 in 10.0 mi SE 12.7 mph - N/A   Mostly Cloudy
3:52 PM 69.1 °F - 37.9 °F 32% 29.75 in 10.0 mi SE 9.2 mph - N/A   Mostly Cloudy
4:52 PM 69.1 °F - 37.9 °F 32% 29.73 in 10.0 mi ESE 11.5 mph 17.3 mph N/A   Mostly Cloudy
5:52 PM 66.9 °F - 36.0 °F 32% 29.70 in 10.0 mi ESE 9.2 mph - N/A   Overcast
6:52 PM 68.0 °F - 37.0 °F 32% 29.68 in 10.0 mi ESE 5.8 mph - N/A   Mostly Cloudy
7:52 PM 66.0 °F - 37.0 °F 34% 29.66 in 10.0 mi ESE 11.5 mph - N/A   Mostly Cloudy
8:52 PM 66.0 °F - 36.0 °F 33% 29.66 in 10.0 mi East 10.4 mph - N/A   Overcast
9:52 PM 64.0 °F - 37.0 °F 37% 29.65 in 10.0 mi East 5.8 mph - N/A   Clear
10:52 PM 63.0 °F - 36.0 °F 37% 29.64 in 10.0 mi East 9.2 mph - N/A   Mostly Cloudy
11:52 PM 57.0 °F - 45.0 °F 64% 29.67 in 10.0 mi Variable 6.9 mph - N/A   Mostly Cloudy